Time,TemperatureF,DewpointF,PressureIn,WindDirection,WindDirectionDegrees,WindSpeedMPH,WindSpeedGustMPH,Humidity,HourlyPrecipIn,Conditions,Clouds,dailyrainin,SoftwareType,DateUTC
2013-01-27 00:03:00,13.0,12.0,-100.00,ESE,110,0.0,0.0,93,0.00,,,-99.99,,2013-01-27 05:03:00,
2013-01-27 00:12:00,14.0,12.0,-100.00,ESE,110,0.0,0.0,94,0.00,,,-99.99,,2013-01-27 05:12:00,
2013-01-27 00:22:00,14.0,13.0,-100.00,ESE,110,0.0,0.0,94,0.00,,,-99.99,,2013-01-27 05:22:00,
2013-01-27 00:32:00,14.0,13.0,-100.00,ESE,110,0.0,0.0,94,0.00,,,-99.99,,2013-01-27 05:32:00,
2013-01-27 00:41:00,14.0,13.0,-100.00,ENE,65,0.0,1.0,94,0.00,,,-99.99,,2013-01-27 05:41:00,
2013-01-27 00:52:00,14.0,13.0,-100.00,North,5,1.0,1.0,94,0.00,,,-99.99,,2013-01-27 05:52:00,
2013-01-27 01:02:00,14.0,13.0,-100.00,North,10,0.0,0.0,94,0.00,,,-99.99,,2013-01-27 06:02:00,
2013-01-27 01:11:00,14.0,13.0,-100.00,North,10,1.0,1.0,94,0.00,,,-99.99,,2013-01-27 06:11:00,
2013-01-27 01:21:00,14.0,13.0,-100.00,NE,40,0.0,1.0,94,0.00,,,-99.99,,2013-01-27 06:21:00,
2013-01-27 01:32:00,14.0,13.0,-100.00,East,90,0.0,0.0,95,0.00,,,-99.99,,2013-01-27 06:32:00,
2013-01-27 01:42:00,14.0,13.0,-100.00,East,90,0.0,0.0,95,0.00,,,-99.99,,2013-01-27 06:42:00,
2013-01-27 01:52:00,14.0,13.0,-100.00,ESE,105,1.0,2.0,95,0.00,,,-99.99,,2013-01-27 06:52:00,
2013-01-27 02:01:00,14.0,13.0,-100.00,ENE,75,0.0,1.0,95,0.00,,,-99.99,,2013-01-27 07:01:00,
2013-01-27 02:14:00,14.0,13.0,-100.00,East,95,0.0,0.0,95,0.00,,,-99.99,,2013-01-27 07:14:00,
2013-01-27 02:21:00,13.0,12.0,-100.00,ESE,105,2.0,2.0,96,0.00,,,-99.99,,2013-01-27 07:21:00,
2013-01-27 02:32:00,13.0,12.0,-100.00,NE,40,0.0,2.0,96,0.00,,,-99.99,,2013-01-27 07:32:00,
2013-01-27 02:41:00,14.0,13.0,-100.00,ESE,120,1.0,1.0,96,0.00,,,-99.99,,2013-01-27 07:41:00,
2013-01-27 02:51:00,14.0,13.0,-100.00,SE,135,0.0,1.0,96,0.00,,,-99.99,,2013-01-27 07:51:00,
2013-01-27 03:01:00,13.0,13.0,-100.00,ESE,115,1.0,2.0,96,0.00,,,-99.99,,2013-01-27 08:01:00,
2013-01-27 03:11:00,13.0,12.0,-100.00,East,95,2.0,3.0,96,0.00,,,-99.99,,2013-01-27 08:11:00,
2013-01-27 03:22:00,13.0,12.0,-100.00,East,90,1.0,2.0,96,0.00,,,-99.99,,2013-01-27 08:22:00,
2013-01-27 03:32:00,13.0,12.0,-100.00,ESE,105,1.0,1.0,97,0.00,,,-99.99,,2013-01-27 08:32:00,
2013-01-27 03:42:00,13.0,12.0,-100.00,SE,130,1.0,2.0,97,0.00,,,-99.99,,2013-01-27 08:42:00,
2013-01-27 03:52:00,14.0,14.0,-100.00,SE,125,1.0,3.0,97,0.00,,,-99.99,,2013-01-27 08:52:00,
2013-01-27 04:03:00,15.0,14.0,-100.00,East,85,1.0,2.0,97,0.00,,,-99.99,,2013-01-27 09:03:00,
2013-01-27 04:11:00,16.0,15.0,-100.00,East,80,3.0,4.0,97,0.00,,,-99.99,,2013-01-27 09:11:00,
2013-01-27 04:21:00,17.0,17.0,-100.00,East,100,2.0,4.0,97,0.00,,,-99.99,,2013-01-27 09:21:00,
2013-01-27 04:32:00,17.0,17.0,-100.00,SE,140,1.0,2.0,97,0.00,,,-99.99,,2013-01-27 09:32:00,
2013-01-27 04:41:00,19.0,18.0,-100.00,SE,135,2.0,4.0,97,0.00,,,-99.99,,2013-01-27 09:41:00,
2013-01-27 04:51:00,19.0,19.0,-100.00,South,175,3.0,6.0,97,0.00,,,-99.99,,2013-01-27 09:51:00,
2013-01-27 05:01:00,19.0,18.0,-100.00,SSE,155,3.0,6.0,96,0.00,,,-99.99,,2013-01-27 10:01:00,
2013-01-27 05:11:00,19.0,19.0,-100.00,SSE,155,2.0,7.0,96,0.00,,,-99.99,,2013-01-27 10:11:00,
2013-01-27 05:21:00,20.0,19.0,-100.00,SSE,160,4.0,7.0,95,0.00,,,-99.99,,2013-01-27 10:21:00,
2013-01-27 05:32:00,20.0,19.0,-100.00,SSE,150,4.0,6.0,94,0.00,,,-99.99,,2013-01-27 10:32:00,
2013-01-27 05:42:00,21.0,19.0,-100.00,SE,135,2.0,7.0,94,0.00,,,-99.99,,2013-01-27 10:42:00,
2013-01-27 05:51:00,21.0,19.0,-100.00,South,170,2.0,5.0,93,0.00,,,-99.99,,2013-01-27 10:51:00,
2013-01-27 06:01:00,21.0,19.0,-100.00,SSE,150,4.0,7.0,93,0.00,,,-99.99,,2013-01-27 11:01:00,
2013-01-27 06:11:00,21.0,19.0,-100.00,SSE,150,4.0,6.0,92,0.00,,,-99.99,,2013-01-27 11:11:00,
2013-01-27 06:21:00,21.0,19.0,-100.00,SSE,150,4.0,7.0,92,0.00,,,-99.99,,2013-01-27 11:21:00,
2013-01-27 06:32:00,21.0,19.0,-100.00,SE,140,4.0,6.0,92,0.00,,,-99.99,,2013-01-27 11:32:00,
2013-01-27 06:42:00,21.0,19.0,-100.00,ESE,105,2.0,4.0,92,0.00,,,-99.99,,2013-01-27 11:42:00,
2013-01-27 06:52:00,21.0,19.0,-100.00,SE,135,2.0,5.0,92,0.00,,,-99.99,,2013-01-27 11:52:00,
2013-01-27 07:02:00,20.0,19.0,-100.00,SE,145,2.0,4.0,92,0.00,,,-99.99,,2013-01-27 12:02:00,
2013-01-27 07:12:00,20.0,19.0,-100.00,ESE,105,2.0,4.0,93,0.00,,,-99.99,,2013-01-27 12:12:00,
2013-01-27 07:21:00,20.0,18.0,-100.00,East,100,0.0,2.0,93,0.00,,,-99.99,,2013-01-27 12:21:00,
2013-01-27 07:32:00,19.0,17.0,-100.00,ENE,65,1.0,3.0,93,0.00,,,-99.99,,2013-01-27 12:32:00,
2013-01-27 07:42:00,19.0,17.0,-100.00,East,80,2.0,4.0,94,0.00,,,-99.99,,2013-01-27 12:42:00,
2013-01-27 07:52:00,19.0,17.0,-100.00,East,100,1.0,2.0,94,0.00,,,-99.99,,2013-01-27 12:52:00,
2013-01-27 08:02:00,19.0,17.0,-100.00,East,90,2.0,4.0,94,0.00,,,-99.99,,2013-01-27 13:02:00,
2013-01-27 08:11:00,19.0,18.0,-100.00,East,80,2.0,5.0,95,0.00,,,-99.99,,2013-01-27 13:11:00,
2013-01-27 08:22:00,20.0,19.0,-100.00,East,90,3.0,6.0,95,0.00,,,-99.99,,2013-01-27 13:22:00,
2013-01-27 08:32:00,19.0,19.0,-100.00,East,90,3.0,6.0,95,0.00,,,-99.99,,2013-01-27 13:32:00,
2013-01-27 08:42:00,20.0,19.0,-100.00,East,90,2.0,5.0,95,0.00,,,-99.99,,2013-01-27 13:42:00,
2013-01-27 08:52:00,20.0,19.0,-100.00,SE,125,2.0,4.0,94,0.00,,,-99.99,,2013-01-27 13:52:00,
2013-01-27 09:02:00,21.0,19.0,-100.00,SE,140,2.0,4.0,94,0.00,,,-99.99,,2013-01-27 14:02:00,
2013-01-27 09:12:00,21.0,20.0,-100.00,South,170,2.0,5.0,93,0.00,,,-99.99,,2013-01-27 14:12:00,
2013-01-27 09:22:00,21.0,20.0,-100.00,SE,130,4.0,5.0,92,0.00,,,-99.99,,2013-01-27 14:22:00,
2013-01-27 09:33:00,22.0,19.0,-100.00,ESE,105,4.0,7.0,89,0.00,,,-99.99,,2013-01-27 14:33:00,
2013-01-27 09:42:00,23.0,19.0,-100.00,SE,140,4.0,7.0,86,0.00,,,-99.99,,2013-01-27 14:42:00,
2013-01-27 09:52:00,24.0,19.0,-100.00,ESE,115,6.0,9.0,82,0.00,,,-99.99,,2013-01-27 14:52:00,
2013-01-27 10:02:00,24.0,19.0,-100.00,SSE,155,7.0,11.0,80,0.00,,,-99.99,,2013-01-27 15:02:00,
2013-01-27 10:12:00,24.0,19.0,-100.00,SE,130,6.0,11.0,79,0.00,,,-99.99,,2013-01-27 15:12:00,
2013-01-27 10:22:00,25.0,19.0,-100.00,SSE,150,5.0,12.0,77,0.00,,,-99.99,,2013-01-27 15:22:00,
2013-01-27 10:32:00,26.0,19.0,-100.00,SE,145,6.0,10.0,74,0.00,,,-99.99,,2013-01-27 15:32:00,
2013-01-27 10:42:00,26.0,18.0,-100.00,SE,130,6.0,13.0,71,0.00,,,-99.99,,2013-01-27 15:42:00,
2013-01-27 10:52:00,26.0,18.0,-100.00,South,170,7.0,14.0,70,0.00,,,-99.99,,2013-01-27 15:52:00,
2013-01-27 11:02:00,26.0,18.0,-100.00,South,170,7.0,14.0,70,0.00,,,-99.99,,2013-01-27 16:02:00,
2013-01-27 11:12:00,27.0,18.0,-100.00,SE,145,5.0,12.0,67,0.00,,,-99.99,,2013-01-27 16:12:00,
2013-01-27 11:21:00,28.0,18.0,-100.00,ESE,105,6.0,12.0,65,0.00,,,-99.99,,2013-01-27 16:21:00,
2013-01-27 11:32:00,27.0,17.0,-100.00,SSE,160,7.0,12.0,65,0.00,,,-99.99,,2013-01-27 16:32:00,
2013-01-27 11:42:00,27.0,17.0,-100.00,ESE,120,7.0,11.0,65,0.00,,,-99.99,,2013-01-27 16:42:00,
2013-01-27 11:52:00,28.0,17.0,-100.00,SE,130,4.0,12.0,65,0.00,,,-99.99,,2013-01-27 16:52:00,
2013-01-27 12:02:00,28.0,17.0,-100.00,SE,135,5.0,11.0,64,0.00,,,-99.99,,2013-01-27 17:02:00,
2013-01-27 12:12:00,27.0,17.0,-100.00,SE,130,6.0,12.0,64,0.00,,,-99.99,,2013-01-27 17:12:00,
2013-01-27 12:22:00,28.0,18.0,-100.00,SE,145,7.0,11.0,64,0.00,,,-99.99,,2013-01-27 17:22:00,
2013-01-27 12:32:00,28.0,17.0,-100.00,South,180,6.0,11.0,64,0.00,,,-99.99,,2013-01-27 17:32:00,
2013-01-27 12:42:00,28.0,18.0,-100.00,SE,125,4.0,7.0,65,0.00,,,-99.99,,2013-01-27 17:42:00,
2013-01-27 12:52:00,28.0,18.0,-100.00,SE,135,6.0,10.0,65,0.00,,,-99.99,,2013-01-27 17:52:00,
2013-01-27 13:02:00,28.0,18.0,-100.00,SSE,150,6.0,9.0,65,0.00,,,-99.99,,2013-01-27 18:02:00,
2013-01-27 13:12:00,28.0,19.0,-100.00,SE,135,6.0,9.0,66,0.00,,,-99.99,,2013-01-27 18:12:00,
2013-01-27 13:22:00,28.0,19.0,-100.00,SE,125,6.0,9.0,66,0.00,,,-99.99,,2013-01-27 18:22:00,
2013-01-27 13:32:00,29.0,19.0,-100.00,SE,145,6.0,9.0,66,0.00,,,-99.99,,2013-01-27 18:32:00,
2013-01-27 13:42:00,29.0,19.0,-100.00,East,90,4.0,9.0,66,0.00,,,-99.99,,2013-01-27 18:42:00,
2013-01-27 13:52:00,29.0,20.0,-100.00,SE,135,4.0,9.0,67,0.00,,,-99.99,,2013-01-27 18:52:00,
2013-01-27 14:02:00,29.0,20.0,-100.00,SE,140,4.0,9.0,67,0.00,,,-99.99,,2013-01-27 19:02:00,
2013-01-27 14:12:00,29.0,20.0,-100.00,SE,145,4.0,11.0,67,0.00,,,-99.99,,2013-01-27 19:12:00,
2013-01-27 14:22:00,29.0,20.0,-100.00,SSE,160,6.0,12.0,67,0.00,,,-99.99,,2013-01-27 19:22:00,
2013-01-27 14:32:00,29.0,20.0,-100.00,SE,130,6.0,9.0,68,0.00,,,-99.99,,2013-01-27 19:32:00,
2013-01-27 14:42:00,29.0,20.0,-100.00,ESE,115,4.0,7.0,68,0.00,,,-99.99,,2013-01-27 19:42:00,
2013-01-27 14:52:00,29.0,21.0,-100.00,ESE,105,5.0,9.0,69,0.00,,,-99.99,,2013-01-27 19:52:00,
2013-01-27 15:03:00,30.0,21.0,-100.00,East,100,6.0,9.0,69,0.00,,,-99.99,,2013-01-27 20:03:00,
2013-01-27 15:12:00,29.0,21.0,-100.00,SE,125,6.0,9.0,69,0.00,,,-99.99,,2013-01-27 20:12:00,
2013-01-27 15:22:00,29.0,21.0,-100.00,ESE,110,7.0,10.0,71,0.00,,,-99.99,,2013-01-27 20:22:00,
2013-01-27 15:33:00,29.0,21.0,-100.00,East,85,7.0,11.0,72,0.00,,,-99.99,,2013-01-27 20:33:00,
2013-01-27 15:42:00,29.0,21.0,-100.00,ESE,105,6.0,11.0,73,0.00,,,-99.99,,2013-01-27 20:42:00,
2013-01-27 15:52:00,29.0,21.0,-100.00,East,85,4.0,11.0,73,0.00,,,-99.99,,2013-01-27 20:52:00,
2013-01-27 16:02:00,28.0,22.0,-100.00,East,80,7.0,10.0,75,0.00,,,-99.99,,2013-01-27 21:02:00,
2013-01-27 16:12:00,28.0,22.0,-100.00,East,80,7.0,10.0,75,0.00,,,-99.99,,2013-01-27 21:12:00,
2013-01-27 16:22:00,29.0,22.0,-100.00,East,95,5.0,9.0,76,0.00,,,-99.99,,2013-01-27 21:22:00,
2013-01-27 16:33:00,28.0,22.0,-100.00,East,85,6.0,12.0,77,0.00,,,-99.99,,2013-01-27 21:33:00,
2013-01-27 16:42:00,28.0,22.0,-100.00,East,95,7.0,12.0,78,0.00,,,-99.99,,2013-01-27 21:42:00,
2013-01-27 16:52:00,28.0,22.0,-100.00,ESE,115,5.0,11.0,79,0.00,,,-99.99,,2013-01-27 21:52:00,
2013-01-27 17:02:00,28.0,23.0,-100.00,ESE,110,4.0,11.0,79,0.00,,,-99.99,,2013-01-27 22:02:00,
2013-01-27 17:12:00,28.0,23.0,-100.00,East,95,4.0,8.0,80,0.00,,,-99.99,,2013-01-27 22:12:00,
2013-01-27 17:22:00,28.0,23.0,-100.00,East,95,7.0,10.0,80,0.00,,,-99.99,,2013-01-27 22:22:00,
2013-01-27 17:32:00,28.0,23.0,-100.00,East,90,4.0,10.0,80,0.00,,,-99.99,,2013-01-27 22:32:00,
2013-01-27 17:42:00,28.0,24.0,-100.00,ESE,115,7.0,10.0,81,0.00,,,-99.99,,2013-01-27 22:42:00,
2013-01-27 17:52:00,28.0,24.0,-100.00,ESE,110,6.0,10.0,82,0.00,,,-99.99,,2013-01-27 22:52:00,
2013-01-27 18:02:00,28.0,24.0,-100.00,East,95,6.0,12.0,82,0.00,,,-99.99,,2013-01-27 23:02:00,
2013-01-27 18:12:00,28.0,24.0,-100.00,East,85,6.0,12.0,83,0.00,,,-99.99,,2013-01-27 23:12:00,
2013-01-27 18:22:00,28.0,24.0,-100.00,East,95,6.0,9.0,83,0.00,,,-99.99,,2013-01-27 23:22:00,
2013-01-27 18:32:00,28.0,24.0,-100.00,NE,50,4.0,12.0,83,0.00,,,-99.99,,2013-01-27 23:32:00,
2013-01-27 18:42:00,28.0,24.0,-100.00,East,100,5.0,10.0,83,0.00,,,-99.99,,2013-01-27 23:42:00,
2013-01-27 18:52:00,29.0,24.0,-100.00,ENE,75,4.0,9.0,83,0.00,,,-99.99,,2013-01-27 23:52:00,
2013-01-27 19:02:00,29.0,24.0,-100.00,ENE,75,4.0,9.0,82,0.00,,,-99.99,,2013-01-28 00:02:00,
2013-01-27 19:11:00,29.0,24.0,-100.00,East,90,7.0,11.0,82,0.00,,,-99.99,,2013-01-28 00:11:00,
2013-01-27 19:21:00,29.0,24.0,-100.00,ESE,115,6.0,9.0,83,0.00,,,-99.99,,2013-01-28 00:21:00,
2013-01-27 19:32:00,29.0,24.0,-100.00,ESE,115,4.0,8.0,83,0.00,,,-99.99,,2013-01-28 00:32:00,
2013-01-27 19:42:00,29.0,25.0,-100.00,ESE,110,7.0,11.0,83,0.00,,,-99.99,,2013-01-28 00:42:00,
2013-01-27 19:51:00,29.0,25.0,-100.00,ESE,120,6.0,11.0,83,0.00,,,-99.99,,2013-01-28 00:51:00,
2013-01-27 20:02:00,29.0,25.0,-100.00,ESE,115,6.0,13.0,83,0.00,,,-99.99,,2013-01-28 01:02:00,
2013-01-27 20:11:00,29.0,25.0,-100.00,SE,130,7.0,14.0,83,0.00,,,-99.99,,2013-01-28 01:11:00,
2013-01-27 20:22:00,29.0,25.0,-100.00,SE,130,7.0,14.0,83,0.00,,,-99.99,,2013-01-28 01:22:00,
2013-01-27 20:33:00,29.0,26.0,-100.00,East,95,6.0,10.0,87,3.94,,,-99.99,,2013-01-28 01:33:00,
2013-01-27 20:42:00,29.0,26.0,-100.00,ESE,110,4.0,9.0,91,1.10,,,-99.99,,2013-01-28 01:42:00,
2013-01-27 20:52:00,28.0,27.0,-100.00,East,90,4.0,9.0,93,3.94,,,-99.99,,2013-01-28 01:52:00,
2013-01-27 21:02:00,28.0,28.0,-100.00,ESE,115,9.0,15.0,96,0.55,,,-99.99,,2013-01-28 02:02:00,
2013-01-27 21:11:00,29.0,28.0,-100.00,ESE,115,8.0,13.0,97,0.00,,,-99.99,,2013-01-28 02:11:00,
2013-01-27 21:22:00,29.0,28.0,-100.00,SE,130,10.0,17.0,97,0.00,,,-99.99,,2013-01-28 02:22:00,
2013-01-27 21:32:00,29.0,29.0,-100.00,SE,135,8.0,17.0,98,0.00,,,-99.99,,2013-01-28 02:32:00,
2013-01-27 21:42:00,29.0,29.0,-100.00,SE,125,8.0,14.0,98,0.00,,,-99.99,,2013-01-28 02:42:00,
2013-01-27 21:52:00,29.0,29.0,-100.00,SE,135,9.0,14.0,98,0.00,,,-99.99,,2013-01-28 02:52:00,
2013-01-27 22:02:00,30.0,29.0,-100.00,ESE,120,11.0,18.0,98,0.00,,,-99.99,,2013-01-28 03:02:00,
2013-01-27 22:12:00,30.0,29.0,-100.00,ESE,110,9.0,17.0,98,0.00,,,-99.99,,2013-01-28 03:12:00,
2013-01-27 22:22:00,30.0,30.0,-100.00,ESE,115,6.0,13.0,98,0.00,,,-99.99,,2013-01-28 03:22:00,
2013-01-27 22:32:00,30.0,30.0,-100.00,SE,135,6.0,12.0,98,0.00,,,-99.99,,2013-01-28 03:32:00,
2013-01-27 22:42:00,30.0,30.0,-100.00,SE,125,7.0,12.0,98,0.00,,,-99.99,,2013-01-28 03:42:00,
2013-01-27 22:52:00,31.0,30.0,-100.00,ESE,120,7.0,13.0,97,0.00,,,-99.99,,2013-01-28 03:52:00,
2013-01-27 23:02:00,31.0,30.0,-100.00,ESE,110,6.0,15.0,97,0.00,,,-99.99,,2013-01-28 04:02:00,
2013-01-27 23:11:00,31.0,30.0,-100.00,SE,125,9.0,14.0,97,0.00,,,-99.99,,2013-01-28 04:11:00,
2013-01-27 23:22:00,31.0,31.0,-100.00,ESE,120,9.0,16.0,96,0.00,,,-99.99,,2013-01-28 04:22:00,
2013-01-27 23:32:00,31.0,31.0,-100.00,SE,125,7.0,14.0,96,0.00,,,-99.99,,2013-01-28 04:32:00,
2013-01-27 23:42:00,32.0,31.0,-100.00,SE,135,6.0,18.0,96,0.00,,,-99.99,,2013-01-28 04:42:00,
2013-01-27 23:52:00,32.0,31.0,-100.00,ESE,120,4.0,13.0,96,0.00,,,-99.99,,2013-01-28 04:52:00,